Content
SEND FEEDBACK

Daily
Averages
Monthly
Summary
United States of America

CHICAGO, ILLINOIS


Home > North America > United States > Illinois
Elevation: 674 feet     Latitude: 41 59N     Longitude: 087 54W

WEATHER
 
SELECT A DAY
Number of Records: 194,962;   Date Range: 7/8/95 - 8/12/14
 
SHARE

PRINT THIS DATA

[ ← Previous Day ]
WEATHER ALMANAC - MARCH 25, 2014
[ Next Day → ]
[ °C ]   °F
Weather ElementAverageHighLow
Temperature26 °F30 °F (1:33 am)21 °F (10:52 pm)
Dewpoint14 °F25 °F (1:45 am)3 °F (5:52 pm)
Humidity62.8 %85 % (1:52 am)36 % (4:52 pm)
Barometer30.10 in30.28 in (11:52 pm)30.01 in (3:11 am)
Wind Speed11.2 mph21.9 mph (10:52 am)
Wind Gust28.8 mph (12:52 pm)
Weather ElementAverage
Visibility7.8 mi
Wind DirectionNW (317.1 °)

Weather ElementTotal
Precipitation---
Heating Degree Days39.5 (Base 65)
Averaged from 35 records on March 25, 2014
WEATHER CONDITIONS BREAKOUT
WIND DIRECTION BREAKOUT
WEATHER BY HOUR - MARCH 25, 2014
[ °C ]   °F
Local TimeTemperatureDewpointHumidityBarometerVisibilityWind DirectionWind SpeedGust SpeedPrecipitationEventsConditions
1:33 AM30.0 °F23.0 °F75 %30.02 in6.0 miWSW (240°)6.9 mph0.00 inSnowLight Snow
1:42 AM30.0 °F24.1 °F79 %30.02 in1.8 miWest (280°)10.4 mph0.00 inSnowLight Snow
1:45 AM30.0 °F25.0 °F82 %30.03 in1.0 miWest (280°)11.5 mph0.00 inSnowLight Snow
1:52 AM28.9 °F25.0 °F85 %30.05 in1.0 miWNW (290°)8.1 mph0.00 inSnowLight Snow
1:58 AM28.9 °F25.0 °F85 %30.02 in2.0 miWNW (300°)9.2 mph0.00 inSnowLight Snow
2:08 AM28.9 °F24.1 °F82 %30.02 in7.0 miWNW (300°)9.2 mph0.00 inOvercast
2:23 AM28.9 °F23.0 °F78 %30.03 in8.0 miNorth (350°)13.8 mph0.00 inOvercast
2:45 AM27.0 °F19.0 °F72 %30.02 in10.0 miNNW (340°)5.8 mph0.00 inOvercast
2:52 AM27.0 °F19.0 °F72 %30.04 in9.0 miNNW (330°)8.1 mph0.00 inOvercast
3:11 AM26.1 °F19.9 °F78 %30.01 in4.0 miNNW (340°)8.1 mph0.00 inSnowLight Snow
3:52 AM26.1 °F19.9 °F78 %30.03 in8.0 miNNW (340°)5.8 mph0.00 inOvercast
4:26 AM25.0 °F19.0 °F78 %30.02 in1.8 miNorth (350°)11.5 mph21.9 mph0.00 inSnowLight Snow
4:35 AM25.0 °F19.9 °F81 %30.02 in2.0 miNorth (350°)12.7 mph0.00 inSnowLight Snow
4:44 AM25.0 °F19.0 °F78 %30.02 in5.0 miNNW (330°)11.5 mph0.00 inSnowLight Snow
4:52 AM25.0 °F19.0 °F78 %30.04 in8.0 miNNW (330°)11.5 mph0.00 inOvercast
4:59 AM25.0 °F17.1 °F72 %30.02 in10.0 miNW (320°)10.4 mphOvercast
5:52 AM25.0 °F17.1 °F72 %30.05 in10.0 miNW (310°)10.4 mphMostly Cloudy
6:52 AM23.0 °F15.1 °F72 %30.06 in9.0 miNW (310°)9.2 mphClear
7:52 AM24.1 °F12.0 °F60 %30.08 in10.0 miNW (310°)9.2 mphClear
8:52 AM25.0 °F12.0 °F58 %30.09 in10.0 miNW (320°)19.6 mphClear
9:52 AM25.0 °F12.0 °F58 %30.12 in10.0 miNNW (330°)17.3 mph27.6 mphOvercast
10:52 AM25.0 °F10.0 °F53 %30.14 in10.0 miNNW (330°)21.9 mph25.3 mphMostly Cloudy
11:52 AM26.1 °F10.9 °F53 %30.14 in10.0 miWNW (300°)11.5 mph23.0 mphMostly Cloudy
12:52 PM26.1 °F8.1 °F47 %30.16 in10.0 miNNW (340°)16.1 mph28.8 mphMostly Cloudy
1:52 PM28.0 °F7.0 °F41 %30.16 in10.0 miWNW (300°)16.1 mph25.3 mphMostly Cloudy
2:52 PM28.0 °F6.1 °F39 %30.16 in10.0 miNNW (340°)18.4 mph23.0 mphScattered Clouds
3:52 PM27.0 °F3.9 °F37 %30.17 in10.0 miWNW (300°)13.8 mph27.6 mphScattered Clouds
4:52 PM28.0 °F3.9 °F36 %30.17 in10.0 miNW (320°)19.6 mph26.5 mphMostly Cloudy
5:52 PM26.1 °F3.0 °F37 %30.18 in10.0 miNW (310°)16.1 mphClear
6:52 PM25.0 °F3.0 °F39 %30.21 in10.0 miNW (310°)10.4 mphClear
7:52 PM24.1 °F3.9 °F42 %30.22 in10.0 miNNW (330°)6.9 mphPartly Cloudy
8:52 PM21.9 °F5.0 °F48 %30.23 in10.0 miNNW (330°)5.8 mphClear
9:52 PM23.0 °F5.0 °F46 %30.25 in10.0 miNW (320°)8.1 mphClear
10:52 PM21.0 °F6.1 °F53 %30.27 in10.0 miNW (310°)3.5 mphClear
11:52 PM21.0 °F6.1 °F53 %30.28 in10.0 miNW (310°)4.6 mphClear
Hourly data recorded from KPWK, located miles away from Chicago, Illinois







STORIES FROM OUR PARTNERS